Showing default

FLTSATCOM 8 (USA 46), 20253

Orbit data source: Space-Track

FLTSATCOM 8 (USA 46), 20253 is a payload satellite owned by SPAWAR (US) in GEO that was launched on Mon, 25 Sep 1989 UTC via an ATLAS G CENTAUR launch vehicle from the Air Force Eastern Test Range (AFETR). Payload-class satellites include a variety of spacecraft equipped with specific instruments for various scientific and technological missions. These include communications satellites like Starlink; space stations such as the ISS; scientific satellites like the Hubble; Earth observation satellites from companies like Planet Labs, Umbra, and HawkEye 360; GPS; miniature CubeSats for education and research; and military/defense satellites.

Not visible in the next 10 days
Identifier
20253, 1989-077A
Orbit
GEO
Country
Flag of USUS
Related business
Manufacturer
TRW
Mission
Operational Defense Communications
Bus & Motor
FLTSATCOM, STAR 37FM
Mass
1,928 kg wet, 822 kg dry
Launch date (UTC)
1989-09-25 (37 years ago)
Launch vehicle
ATLAS G CENTAUR
Launch site
Air Force Eastern Test Range (AFETR)
Object type
Payload
Rocket body
Debris
Shape & HBR
Hex Cyl + 1 Dish + 2 Pan, 6.6 m
Radar Cross Section
11.171 m², Large (>1 m²)

Expand to show TLE details & history
Last TLE update: 1 day ago

TLE from 1 day ago
0 FLTSATCOM 8 (USA 46)
1 20253U 89077A   26208.77177203 -.00000362  00000-0  00000-0 0  9997
2 20253  12.4101 350.9135 0002036 107.1797 250.9505  1.00276994260969
Epoch: 2026-07-27T18:31Z
TLE epoch observation values (Epoch: 2026-07-27T18:31:21.103Z)
Latitude
-0.42049°
Longitude
125.77119°
Altitude
35,787.577 km
Speed
3.075 km/s
True Right ascension
23h 16m 14s
True Declination
0° 25' 12"
Sunlit
Object was in daylight at epoch
Visualization orbit readout
Latitude
Unknown
Longitude
Unknown
Altitude
Unknown
Speed
Unknown
Apparent Right ascension
Unknown
Apparent Declination
Unknown
Sunlit
N/A
Visualization observer readout
Local Sidereal Time
10:06:43
Azimuth
Unknown
Elevation
Unknown
Doppler factor
Unknown
Orbital elements
Apogee altitude
35,794.717 km
Perigee altitude
35,777.548 km
Semi-major axis
42,164.27 km
Eccentricity
0.0002
Inclination
12.4101°
RAAN
350.9135°
Arg. of periapsis
107.1797°
True anomaly
250.92845°
Mean anomaly
250.9505°
Eccentric anomaly
250.93947°
Mean motion
0.25068 °/min
Orbital period
1,436.07 mins
BSTAR
0
Loading maneuver chart data...
Computing Atmospheric mass density...
Loading historical data...
Loading historical data...
Loading historical data...
Loading historical data...
Loading historical data...
Loading historical data...
Loading historical data...
Other satellites on launch #77 in the year 1989 (1989-09-25 UTC)

Documentation

Showing up to 5 results
|